CW0453 Weather Reports


Display with metric or nautical units.
time (UTC)temp
F
wind
direction
speed
MPH
gust
MPH
rain 1hr
in
rain 24hr
in
rain mn
in
humidity
%
barometer
mb
20170721184538 95 224 6.0 14.0 0.00 0.00 0.00 60 1008.8
20170721184022 95 161 9.0 16.0 0.00 0.00 0.00 60 1008.9
20170721183522 94 212 9.0 16.0 0.00 0.00 0.00 57 1009.0
20170721183025 94 192 8.0 18.0 0.00 0.00 0.00 56 1009.0
20170721182529 94 196 8.0 17.0 0.00 0.00 0.00 56 1009.1
20170721182034 94 198 9.0 18.0 0.00 0.00 0.00 56 1009.2
20170721181538 94 219 10.0 18.0 0.00 0.00 0.00 56 1009.2
20170721181021 94 192 7.0 17.0 0.00 0.00 0.00 57 1009.2
20170721180524 93 163 10.0 17.0 0.00 0.00 0.00 58 1009.3
20170721180027 94 203 10.0 15.0 0.00 0.00 0.00 58 1009.4
20170721175522 93 185 8.0 15.0 0.00 0.00 0.00 58 1009.4
20170721175023 93 220 8.0 14.0 0.00 0.00 0.00 56 1009.4
20170721174526 93 250 9.0 16.0 0.00 0.00 0.00 58 1009.5
20170721174025 93 189 9.0 18.0 0.00 0.00 0.00 58 1009.4
20170721173528 93 213 10.0 18.0 0.00 0.00 0.00 57 1009.5
20170721173029 92 215 9.0 16.0 0.00 0.00 0.00 59 1009.5
20170721172530 92 225 10.0 18.0 0.00 0.00 0.00 58 1009.6
20170721172030 93 225 10.0 18.0 0.00 0.00 0.00 57 1009.6
20170721171530 93 167 8.0 15.0 0.00 0.00 0.00 60 1009.7
20170721171030 93 191 7.0 14.0 0.00 0.00 0.00 59 1009.7
20170721170532 92 189 8.0 12.0 0.00 0.00 0.00 60 1009.7
20170721170033 92 165 7.0 16.0 0.00 0.00 0.00 62 1009.8
20170721165536 92 248 9.0 15.0 0.00 0.00 0.00 62 1009.9
20170721165032 91 196 5.0 13.0 0.00 0.00 0.00 62 1009.9
20170721164535 91 202 9.0 13.0 0.00 0.00 0.00 61 1010.0
20170721164036 91 215 6.0 14.0 0.00 0.00 0.00 61 1009.9
20170721163538 91 210 7.0 14.0 0.00 0.00 0.00 63 1009.9
20170721163037 91 211 6.0 14.0 0.00 0.00 0.00 62 1009.8
20170721162539 91 143 8.0 14.0 0.00 0.00 0.00 65 1009.9
20170721162039 90 200 9.0 14.0 0.00 0.00 0.00 63 1009.9
20170721161520 90 197 8.0 12.0 0.00 0.00 0.00 64 1009.9
20170721161020 90 192 8.0 11.0 0.00 0.00 0.00 63 1009.8
20170721160525 90 225 8.0 15.0 0.00 0.00 0.00 64 1009.7
20170721160030 89 207 8.0 15.0 0.00 0.00 0.00 65 1009.7
20170721155530 89 213 8.0 16.0 0.00 0.00 0.00 65 1009.7
20170721155032 89 166 10.0 17.0 0.00 0.00 0.00 64 1009.6
20170721154536 89 197 9.0 16.0 0.00 0.00 0.00 64 1009.6
20170721154032 89 182 10.0 16.0 0.00 0.00 0.00 64 1009.6
20170721153533 89 203 9.0 13.0 0.00 0.00 0.00 66 1009.6
20170721153033 89 164 10.0 16.0 0.00 0.00 0.00 65 1009.8
20170721152536 88 158 11.0 16.0 0.00 0.00 0.00 64 1009.7
20170721152037 88 175 11.0 15.0 0.00 0.00 0.00 65 1009.7
20170721151537 88 198 8.0 15.0 0.00 0.00 0.00 67 1009.7
20170721151021 88 146 8.0 13.0 0.00 0.00 0.00 67 1009.7
20170721150520 88 161 7.0 13.0 0.00 0.00 0.00 67 1009.7
20170721150024 88 195 8.0 15.0 0.00 0.00 0.00 69 1009.7
20170721145526 87 170 9.0 15.0 0.00 0.00 0.00 66 1009.8
20170721145027 87 184 8.0 16.0 0.00 0.00 0.00 69 1009.8
20170721144529 87 170 8.0 17.0 0.00 0.00 0.00 68 1009.9
20170721144031 87 165 10.0 17.0 0.00 0.00 0.00 67 1010.0
20170721143535 86 175 8.0 13.0 0.00 0.00 0.00 69 1010.1
20170721143034 86 156 7.0 13.0 0.00 0.00 0.00 69 1010.4
20170721142537 86 186 7.0 15.0 0.00 0.00 0.00 68 1010.4
20170721142021 86 132 5.0 15.0 0.00 0.00 0.00 69 1010.4
20170721141521 85 154 7.0 13.0 0.00 0.00 0.00 70 1010.5
20170721141024 85 174 7.0 11.0 0.00 0.00 0.00 69 1010.6
20170721140527 85 194 6.0 10.0 0.00 0.00 0.00 71 1010.6
20170721140027 84 165 7.0 11.0 0.00 0.00 0.00 70 1010.7
20170721135527 84 186 8.0 14.0 0.00 0.00 0.00 71 1010.6
20170721135028 84 180 8.0 14.0 0.00 0.00 0.00 74 1010.6
20170721134531 83 186 9.0 13.0 0.00 0.00 0.00 72 1010.6
20170721134032 83 197 8.0 11.0 0.00 0.00 0.00 73 1010.6
20170721133533 83 182 6.0 11.0 0.00 0.00 0.00 73 1010.6
20170721133035 83 169 7.0 10.0 0.00 0.00 0.00 73 1010.6
20170721132535 82 171 7.0 10.0 0.00 0.00 0.00 73 1010.6
20170721132031 82 163 6.0 11.0 0.00 0.00 0.00 75 1010.6
20170721131534 82 217 6.0 12.0 0.00 0.00 0.00 75 1010.6
20170721131035 81 155 6.0 12.0 0.00 0.00 0.00 75 1010.6
20170721130538 81 180 6.0 11.0 0.00 0.00 0.00 76 1010.4
20170721130040 80 178 6.0 9.0 0.00 0.00 0.00 76 1010.6
20170721125520 80 182 7.0 9.0 0.00 0.00 0.00 77 1010.6
20170721125024 79 154 5.0 9.0 0.00 0.00 0.00 78 1010.6
20170721124526 79 151 5.0 10.0 0.00 0.00 0.00 79 1010.7
20170721124030 79 159 5.0 10.0 0.00 0.00 0.00 79 1010.7
20170721123530 79 184 6.0 9.0 0.00 0.00 0.00 79 1010.7
20170721123032 78 173 5.0 8.0 0.00 0.00 0.00 79 1010.9
20170721122532 78 159 5.0 9.0 0.00 0.00 0.00 80 1011.0
20170721122033 78 175 5.0 9.0 0.00 0.00 0.00 80 1010.9
20170721121534 78 173 5.0 8.0 0.00 0.00 0.00 79 1010.9
20170721121033 78 173 5.0 9.0 0.00 0.00 0.00 80 1010.9
20170721120537 78 163 5.0 9.0 0.00 0.00 0.00 80 1010.9
20170721120022 78 171 6.0 9.0 0.00 0.00 0.00 80 1011.0
20170721115526 78 175 6.0 10.0 0.00 0.00 0.00 80 1011.0
20170721115030 78 154 6.0 9.0 0.00 0.00 0.00 80 1011.0
20170721114533 78 167 5.0 9.0 0.00 0.00 0.00 80 1010.9
20170721114033 78 183 6.0 8.0 0.00 0.00 0.00 80 1010.8
20170721113534 78 186 6.0 8.0 0.00 0.00 0.00 80 1010.9
20170721113038 78 173 5.0 8.0 0.00 0.00 0.00 80 1010.9
20170721112538 78 183 5.0 10.0 0.00 0.00 0.00 80 1010.9
20170721112040 78 172 6.0 9.0 0.00 0.00 0.00 80 1010.9
20170721111522 78 178 5.0 9.0 0.00 0.00 0.00 80 1010.9
20170721111022 78 173 6.0 9.0 0.00 0.00 0.00 81 1010.9
20170721110525 78 184 6.0 8.0 0.00 0.00 0.00 81 1010.9
20170721110027 78 184 5.0 7.0 0.00 0.00 0.00 81 1011.0
20170721105522 78 171 5.0 7.0 0.00 0.00 0.00 81 1011.0
20170721105024 78 165 5.0 8.0 0.00 0.00 0.00 81 1010.9
20170721104526 78 167 4.0 7.0 0.00 0.00 0.00 81 1011.0
20170721104027 78 185 5.0 7.0 0.00 0.00 0.00 81 1011.0
20170721103528 78 167 5.0 9.0 0.00 0.00 0.00 80 1010.9
20170721103031 78 227 6.0 10.0 0.00 0.00 0.00 81 1010.9
20170721102533 78 159 6.0 10.0 0.00 0.00 0.00 80 1011.0
20170721102035 78 179 5.0 7.0 0.00 0.00 0.00 80 1011.0
20170721101537 78 170 5.0 8.0 0.00 0.00 0.00 80 1011.0
20170721101021 78 188 5.0 8.0 0.00 0.00 0.00 80 1011.0
20170721100521 78 175 5.0 8.0 0.00 0.00 0.00 80 1011.1
20170721100027 79 150 6.0 9.0 0.00 0.00 0.00 80 1011.1
20170721095528 79 170 4.0 10.0 0.00 0.00 0.00 80 1011.1
20170721095031 79 188 5.0 10.0 0.00 0.00 0.00 79 1011.0
20170721094527 79 180 5.0 9.0 0.00 0.00 0.00 79 1011.1
20170721094030 79 178 5.0 8.0 0.00 0.00 0.00 79 1011.1
20170721093531 79 184 5.0 9.0 0.00 0.00 0.00 79 1011.1
20170721093033 79 171 6.0 8.0 0.00 0.00 0.00 79 1011.1
20170721092535 79 171 5.0 10.0 0.00 0.00 0.00 79 1011.2
20170721092036 79 164 6.0 10.0 0.00 0.00 0.00 79 1011.3
20170721091039 79 159 5.0 8.0 0.00 0.00 0.00 79 1011.3
20170721090521 80 165 4.0 8.0 0.00 0.00 0.00 78 1011.4
20170721090022 80 168 4.0 9.0 0.00 0.00 0.00 78 1011.6
20170721085525 80 173 5.0 9.0 0.00 0.00 0.00 77 1011.7
20170721085027 80 166 6.0 8.0 0.00 0.00 0.00 77 1011.7
20170721084531 80 166 5.0 9.0 0.00 0.00 0.00 76 1011.9
20170721084032 80 188 5.0 8.0 0.00 0.00 0.00 77 1011.9
20170721083529 80 175 5.0 9.0 0.00 0.00 0.00 76 1011.9
20170721083030 80 156 6.0 10.0 0.00 0.00 0.00 77 1011.8
20170721082529 81 180 6.0 9.0 0.00 0.00 0.00 76 1011.9
20170721082033 81 168 7.0 11.0 0.00 0.00 0.00 76 1011.9
20170721081534 81 165 6.0 10.0 0.00 0.00 0.00 76 1012.0
20170721081033 81 170 5.0 10.0 0.00 0.00 0.00 76 1012.0
20170721080536 81 178 7.0 11.0 0.00 0.00 0.00 76 1012.1
20170721080039 81 190 6.0 11.0 0.00 0.00 0.00 75 1012.2
20170721075522 81 168 5.0 10.0 0.00 0.00 0.00 75 1012.3
20170721075022 81 181 7.0 10.0 0.00 0.00 0.00 75 1012.4
20170721074525 81 163 7.0 9.0 0.00 0.00 0.00 75 1012.4
20170721074027 81 175 6.0 10.0 0.00 0.00 0.00 74 1012.4
20170721073528 82 200 6.0 10.0 0.00 0.00 0.00 74 1012.5
20170721073029 82 149 7.0 10.0 0.00 0.00 0.00 74 1012.5
20170721072527 82 175 5.0 10.0 0.00 0.00 0.00 73 1012.4
20170721072027 82 162 7.0 11.0 0.00 0.00 0.00 73 1012.5
20170721071530 82 206 7.0 12.0 0.00 0.00 0.00 73 1012.5
20170721071032 82 186 5.0 12.0 0.00 0.00 0.00 73 1012.5
20170721070533 82 175 7.0 16.0 0.00 0.00 0.00 73 1012.5
20170721070035 82 184 7.0 16.0 0.00 0.00 0.00 74 1012.5
20170721065535 82 173 6.0 9.0 0.00 0.00 0.00 74 1012.5
20170721065036 82 150 5.0 10.0 0.00 0.00 0.00 74 1012.5
20170721064536 82 180 6.0 10.0 0.00 0.00 0.00 74 1012.5
20170721064038 82 180 6.0 10.0 0.00 0.00 0.00 74 1012.4
20170721063539 82 190 7.0 12.0 0.00 0.00 0.00 74 1012.4
20170721063021 82 215 8.0 12.0 0.00 0.00 0.00 74 1012.4
20170721062521 82 161 7.0 11.0 0.00 0.00 0.00 74 1012.3
20170721062021 82 176 6.0 10.0 0.00 0.00 0.00 75 1012.3
20170721061539 82 157 8.0 12.0 0.00 0.00 0.00 75 1012.3
20170721061039 82 163 7.0 12.0 0.00 0.00 0.00 76 1012.4
20170721060540 82 143 8.0 12.0 0.00 0.00 0.00 76 1012.4
20170721060022 82 158 7.0 10.0 0.00 0.00 0.00 77 1012.5
20170721055522 83 170 6.0 11.0 0.00 0.00 0.00 77 1012.5
20170721055025 83 140 6.0 9.0 0.00 0.00 0.00 77 1012.5
20170721054525 83 150 6.0 10.0 0.00 0.00 0.00 77 1012.5
20170721054025 83 156 7.0 10.0 0.00 0.00 0.00 77 1012.4
20170721053526 83 168 6.0 10.0 0.00 0.00 0.00 77 1012.4
20170721053027 84 162 5.0 9.0 0.00 0.00 0.00 77 1012.5
20170721052529 84 167 6.0 9.0 0.00 0.00 0.00 78 1012.5
20170721052029 84 140 5.0 10.0 0.00 0.00 0.00 79 1012.5
20170721051531 84 163 5.0 11.0 0.00 0.00 0.00 79 1012.6
20170721051027 84 153 6.0 11.0 0.00 0.00 0.00 80 1012.6
20170721050527 84 146 6.0 10.0 0.00 0.00 0.00 82 1012.5
20170721050030 84 155 4.0 12.0 0.00 0.00 0.00 83 1012.6
20170721045527 84 152 5.0 8.0 0.00 0.00 0.00 84 1012.6
20170721045035 84 134 3.0 10.0 0.00 0.00 0.00 85 1012.5
20170721044537 84 153 5.0 10.0 0.00 0.00 0.00 85 1012.5
20170721044039 84 160 4.0 9.0 0.00 0.00 0.00 86 1012.5
20170721043540 84 129 6.0 9.0 0.00 0.00 0.00 86 1012.4
20170721043024 84 130 5.0 9.0 0.00 0.00 0.00 85 1012.4
20170721042527 84 126 4.0 8.0 0.00 0.00 0.00 85 1012.3
20170721042028 84 124 4.0 8.0 0.00 0.00 0.00 85 1012.4
20170721041525 84 148 3.0 8.0 0.00 0.00 0.00 85 1012.4
20170721041027 85 116 5.0 8.0 0.00 0.00 0.00 84 1012.3
20170721040528 85 150 4.0 11.0 0.00 0.00 0.00 84 1012.3
20170721040030 85 128 4.0 11.0 0.00 0.00 0.00 84 1012.3
20170721035525 85 142 4.0 10.0 0.00 0.00 0.00 85 1012.5
20170721035025 85 127 4.0 10.0 0.00 0.00 0.00 85 1012.6
20170721034528 85 102 6.0 9.0 0.00 0.00 0.00 84 1012.7
20170721034029 85 128 5.0 11.0 0.00 0.00 0.00 84 1012.7
20170721033529 85 117 5.0 11.0 0.00 0.00 0.00 84 1012.7
20170721033029 85 116 7.0 11.0 0.00 0.00 0.00 84 1012.7
20170721032531 85 120 5.0 10.0 0.00 0.00 0.00 84 1012.7
20170721032031 85 119 4.0 10.0 0.00 0.00 0.00 83 1012.8
20170721031532 85 115 5.0 10.0 0.00 0.00 0.00 83 1012.8
20170721031034 85 120 6.0 10.0 0.00 0.00 0.00 83 1012.9
20170721030536 85 98 5.0 10.0 0.00 0.00 0.00 83 1012.9
20170721030020 85 121 4.0 9.0 0.00 0.00 0.00 83 1012.8
20170721025527 86 124 4.0 12.0 0.00 0.00 0.00 82 1012.8
20170721025032 86 107 5.0 12.0 0.00 0.00 0.00 82 1012.6
20170721024538 86 122 6.0 10.0 0.00 0.00 0.00 81 1012.6
20170721024026 86 113 5.0 10.0 0.00 0.00 0.00 80 1012.4
20170721023531 87 124 5.0 10.0 0.00 0.00 0.00 79 1012.2
20170721023036 87 116 5.0 9.0 0.00 0.00 0.00 78 1012.0
20170721022538 87 128 5.0 9.0 0.00 0.00 0.00 77 1012.0
20170721022020 87 115 6.0 9.0 0.00 0.00 0.00 77 1012.0
20170721021529 87 158 5.0 10.0 0.00 0.00 0.00 77 1011.9
20170721021034 87 109 5.0 10.0 0.00 0.00 0.00 77 1011.9
20170721020537 87 137 4.0 8.0 0.00 0.00 0.00 78 1012.0
20170721020020 88 120 4.0 9.0 0.00 0.00 0.00 77 1012.0
20170721015530 88 112 5.0 9.0 0.00 0.00 0.00 77 1012.0
20170721015034 88 113 5.0 8.0 0.00 0.00 0.00 76 1012.0
20170721014535 88 115 5.0 8.0 0.00 0.00 0.00 77 1012.0
20170721014039 88 111 2.0 7.0 0.00 0.00 0.00 76 1012.1
20170721013540 88 74 3.0 7.0 0.00 0.00 0.00 76 1012.3
20170721013021 88 119 3.0 7.0 0.00 0.00 0.00 76 1012.4
20170721012525 88 119 3.0 8.0 0.00 0.00 0.00 76 1012.5
20170721012025 88 129 3.0 8.0 0.00 0.00 0.00 76 1012.6
20170721011525 88 127 3.0 8.0 0.00 0.00 0.00 76 1012.8
20170721011028 89 117 4.0 7.0 0.00 0.00 0.00 76 1012.9
20170721010529 89 115 2.0 7.0 0.00 0.00 0.00 76 1012.9
20170721010030 89 114 2.0 6.0 0.00 0.00 0.00 76 1012.9
20170721005530 89 115 3.0 6.0 0.00 0.00 0.00 76 1012.8
20170721005031 89 115 3.0 4.0 0.00 0.00 0.00 75 1012.7
20170721004536 89 119 3.0 4.0 0.00 0.00 0.00 75 1012.6
20170721004037 89 115 1.0 4.0 0.00 0.00 0.00 75 1012.5
20170721003535 89 115 2.0 7.0 0.00 0.00 0.00 75 1012.4
20170721003039 90 115 3.0 7.0 0.00 0.00 0.00 74 1012.3
20170721002539 90 117 3.0 7.0 0.00 0.00 0.00 73 1012.3
20170721002040 90 114 3.0 5.0 0.00 0.00 0.00 71 1012.3
20170721001522 90 126 3.0 4.0 0.00 0.00 0.00 72 1012.5
20170721001021 89 126 3.0 4.0 0.00 0.00 0.00 73 1012.7
20170721000525 89 126 2.0 4.0 0.00 0.00 0.00 73 1012.8
20170721000027 90 126 2.0 4.0 0.00 0.00 0.00 71 1013.0
20170720235528 91 129 2.0 6.0 0.00 0.00 0.00 70 1013.1
20170720235030 91 119 3.0 6.0 0.00 0.00 0.00 71 1013.2
20170720234529 91 116 3.0 7.0 0.00 0.00 0.00 70 1013.2
20170720234031 91 121 2.0 7.0 0.00 0.00 0.00 70 1013.3
20170720233532 91 98 2.0 6.0 0.00 0.00 0.00 69 1013.3
20170720233032 91 98 3.0 6.0 0.00 0.00 0.00 68 1013.3
20170720232530 91 98 2.0 4.0 0.00 0.00 0.00 71 1013.3
20170720232034 91 126 2.0 4.0 0.00 0.00 0.00 69 1013.3
20170720231535 91 126 1.0 4.0 0.00 0.00 0.00 70 1013.3
20170720231036 91 126 2.0 4.0 0.00 0.00 0.00 68 1013.3
20170720230536 91 169 3.0 5.0 0.00 0.00 0.00 67 1013.3
20170720230038 91 169 1.0 5.0 0.00 0.00 0.00 69 1013.3
20170720225539 92 169 3.0 5.0 0.00 0.00 0.00 65 1013.3
20170720225021 92 192 1.0 3.0 0.00 0.00 0.00 67 1013.6
20170720224523 92 192 1.0 3.0 0.00 0.00 0.00 66 1013.7
20170720224026 92 192 2.0 3.0 0.00 0.00 0.00 64 1013.8
20170720223528 91 181 0.0 2.0 0.00 0.00 0.00 69 1013.9
20170720223028 91 181 0.0 2.0 0.00 0.00 0.00 66 1014.0
20170720222531 91 181 0.0 4.0 0.00 0.00 0.00 67 1014.1
20170720222031 92 181 2.0 9.0 0.00 0.00 0.00 64 1013.9
20170720221528 92 186 5.0 9.0 0.00 0.00 0.00 65 1013.8
20170720221030 92 183 3.0 5.0 0.00 0.00 0.00 67 1013.7
20170720220529 92 184 3.0 7.0 0.00 0.00 0.00 64 1013.7
20170720220030 92 161 5.0 8.0 0.00 0.00 0.00 64 1013.5
20170720215533 92 184 4.0 8.0 0.00 0.00 0.00 64 1013.5
20170720215033 92 190 5.0 12.0 0.00 0.00 0.00 63 1013.6
20170720214536 92 199 5.0 12.0 0.00 0.00 0.00 66 1013.5
20170720214037 93 211 7.0 14.0 0.00 0.00 0.00 63 1013.7
20170720213521 92 190 8.0 15.0 0.00 0.00 0.00 64 1013.7
20170720213025 92 142 5.0 10.0 0.00 0.00 0.00 68 1013.8
20170720212527 91 152 5.0 8.0 0.00 0.00 0.00 65 1013.9
20170720212028 91 156 5.0 10.0 0.00 0.00 0.00 66 1014.1
20170720211530 91 202 7.0 10.0 0.00 0.00 0.00 64 1014.2
20170720211031 93 171 6.0 10.0 0.00 0.00 0.00 63 1014.2
20170720210530 93 202 6.0 10.0 0.00 0.00 0.00 63 1014.2
20170720210031 93 164 6.0 10.0 0.00 0.00 0.00 63 1014.2
20170720205533 93 158 4.0 7.0 0.00 0.00 0.00 64 1014.3
20170720205035 93 138 5.0 8.0 0.00 0.00 0.00 61 1014.3
20170720204535 93 126 5.0 10.0 0.00 0.00 0.00 65 1014.3
20170720204037 92 164 5.0 10.0 0.00 0.00 0.00 65 1014.4
20170720203538 93 192 5.0 8.0 0.00 0.00 0.00 63 1014.5
20170720203040 93 171 5.0 8.0 0.00 0.00 0.00 61 1014.5
20170720202522 93 195 5.0 8.0 0.00 0.00 0.00 62 1014.6
20170720202025 93 191 4.0 8.0 0.00 0.00 0.00 60 1014.7
20170720201527 92 159 3.0 11.0 0.00 0.00 0.00 61 1014.6
20170720201030 93 202 4.0 11.0 0.00 0.00 0.00 63 1014.6
20170720200536 93 154 3.0 9.0 0.00 0.00 0.00 64 1014.7
20170720200038 93 155 5.0 9.0 0.00 0.00 0.00 64 1014.6
20170720195536 92 158 5.0 11.0 0.00 0.00 0.00 63 1014.5
20170720195038 93 204 7.0 11.0 0.00 0.00 0.00 62 1014.5
20170720194540 93 115 4.0 9.0 0.00 0.00 0.00 67 1014.6
20170720194022 93 158 4.0 10.0 0.00 0.00 0.00 60 1014.6
20170720193520 93 133 4.0 10.0 0.00 0.00 0.00 62 1014.7
20170720193025 92 130 4.0 10.0 0.00 0.00 0.00 63 1014.7
20170720192526 93 190 7.0 10.0 0.00 0.00 0.00 61 1014.7
20170720192029 93 114 6.0 8.0 0.00 0.00 0.00 57 1014.7
20170720191529 92 132 5.0 9.0 0.00 0.00 0.00 65 1014.7
20170720191030 92 203 6.0 9.0 0.00 0.00 0.00 62 1014.7
20170720190531 92 163 7.0 9.0 0.00 0.00 0.00 63 1014.7
20170720185539 92 151 6.0 9.0 0.00 0.00 0.00 62 1014.7
20170720185039 92 149 4.0 9.0 0.00 0.00 0.00 63 1014.8